Tracking 18851 objects as of 24-Nov-2017
HD Live streaming from Space Station
objects crossing your sky now

FENGYUN 1C DEB

Track FENGYUN 1C DEB now!
10-day predictions


NORAD ID: 37894
Int'l Code: 1999-025EMT
Perigee: 658.6 km
Apogee: 807.3 km
Inclination: 99.0 °
Period: 99.3 minutes
Semi major axis: 7103 km
RCS: 0.0011 m2 (small)
Launch date: May 10, 1999
Source: People's Republic of China (PRC)
Launch site: Taiyaun Space Center, China (TSC)

Note: This is SATELLITE DEBRIS
aabbcc
Your satellite tracking list
Your tracking list is empty




NASA's NSSDC Master Catalog

Two Line Element Set (TLE):
1 37894U 99025EMT 17328.30214344  .00003518  00000-0  86052-3 0  9999
2 37894  99.0159 142.2061 0104689  90.3325 270.9864 14.49954686382737
Source of the keplerian elements: AFSPC